Theta_e
289 289 289 289 289 289 289 289 289 289 289 289 289 288 288 288 288 288 288 288 288 288 288 288 288 288 289 289 289 289 289 288 288 288 288 288 289 289 290 290 290 290 290 291 291 291 292 292 292 292 292 293 293 293 293 293 293 294 294 294 294 293 292 291 291 292 293 293 294 294 294 294 294 294 294 294 294 294 294 294 294 294 295 295 295 296
289 289 289 289 289 289 289 289 289 289 289 288 288 288 288 288 288 288 288 288 288 288 288 288 288 289 289 289 289 289 289 289 289 289 289 289 289 289 289 289 289 289 289 290 290 291 291 292 292 292 293 293 292 292 293 294 294 294 294 294 293 293 292 291 291 291 292 292 292 292 292 292 292 293 293 293 293 293 293 293 294 294 295 294 295 296
289 289 289 289 289 289 289 289 289 289 289 288 288 288 288 288 288 288 288 288 288 288 288 288 289 289 289 289 289 289 289 289 289 289 289 289 289 289 289 289 289 289 289 290 290 291 291 291 292 292 292 292 292 292 292 293 293 293 293 293 292 292 292 292 291 291 291 291 291 291 290 291 291 292 292 292 293 293 293 293 293 294 294 294 295 295
289 290 290 289 289 289 289 289 289 289 288 288 288 288 288 288 288 288 288 288 288 288 288 289 289 289 289 289 289 289 289 289 289 289 289 289 289 289 289 289 289 289 289 290 290 290 291 291 292 292 292 292 291 291 291 291 291 291 291 291 291 291 291 291 291 291 292 292 291 291 290 290 290 291 291 292 292 292 293 293 293 293 293 294 294 295
290 290 290 290 289 289 289 289 289 289 288 288 288 288 288 288 288 288 288 288 288 288 289 289 289 289 289 289 289 289 289 289 289 289 289 289 289 289 289 289 289 289 289 289 290 290 291 291 292 292 292 292 291 291 290 290 290 290 290 291 291 291 291 291 291 291 291 292 292 292 291 291 290 290 290 291 291 291 292 292 292 293 293 293 294 295
290 290 290 290 289 289 289 289 289 289 288 288 288 288 288 288 288 288 288 288 288 288 289 289 289 289 289 289 289 289 289 289 289 289 289 289 289 289 289 289 289 289 289 289 290 290 291 291 291 291 291 291 291 290 290 290 290 290 290 291 291 291 291 291 291 291 291 291 292 292 292 292 291 290 290 290 290 291 291 291 292 292 292 293 293 294
290 290 290 290 289 289 289 289 289 289 288 288 288 288 288 288 288 288 288 288 288 288 289 289 289 289 289 289 289 289 289 289 289 289 289 289 289 288 289 289 289 289 289 289 290 290 291 291 291 291 291 290 290 290 289 289 289 290 290 290 290 290 290 290 290 290 291 291 291 292 292 292 291 291 290 290 290 290 291 291 291 291 292 292 293 293
291 290 290 290 289 289 289 289 289 289 289 288 288 288 288 288 288 288 288 288 288 288 289 289 289 289 289 289 289 289 289 290 290 289 289 289 288 288 288 289 289 289 289 289 290 290 290 290 290 290 290 289 289 289 289 289 289 289 289 289 289 289 289 290 290 290 291 291 291 291 292 292 292 291 291 291 290 290 291 291 291 291 291 292 292 292
291 290 290 289 289 289 289 289 289 289 289 288 288 288 288 288 288 288 288 288 288 288 288 289 289 289 289 289 289 289 290 290 289 289 289 289 288 288 288 288 289 289 289 289 289 289 289 289 289 289 289 289 289 289 289 289 288 288 288 288 288 289 289 289 290 290 291 291 291 291 291 292 292 291 291 291 291 291 291 291 291 291 291 291 292 292
290 290 290 289 289 289 289 289 289 289 289 288 288 288 288 288 288 288 288 288 288 288 288 288 289 289 289 289 289 289 290 290 289 289 289 289 288 288 288 288 288 288 288 288 289 289 289 289 289 289 289 288 288 288 288 288 288 288 288 288 288 288 288 289 289 290 291 291 291 291 291 291 291 291 291 291 291 291 291 291 291 291 291 291 291 291
290 290 290 290 289 289 289 289 289 289 289 288 288 288 288 288 288 288 288 288 288 288 288 289 289 289 289 289 289 289 289 290 289 289 289 289 288 288 289 288 288 288 288 289 289 289 289 288 288 288 288 288 288 288 288 288 288 288 287 287 288 288 288 289 289 290 290 291 291 291 291 291 291 291 290 290 290 290 290 290 291 291 291 291 291 291
290 290 290 290 290 290 290 290 289 289 289 288 288 288 288 288 288 288 289 288 288 289 289 289 289 289 289 289 289 289 289 290 289 289 289 288 288 288 288 288 288 288 288 288 288 288 288 288 288 288 287 287 287 287 287 287 287 287 287 287 288 288 289 289 290 290 290 290 290 290 290 290 290 290 290 290 290 290 290 290 290 290 291 291 291 291
291 291 291 291 291 291 290 290 289 289 288 288 288 288 288 288 288 289 289 289 289 289 289 289 289 289 289 289 289 289 289 289 289 289 288 288 288 288 288 288 288 287 287 287 287 287 287 287 287 287 287 287 287 287 287 287 287 287 287 288 288 289 289 289 289 289 289 289 289 289 289 289 289 289 289 289 289 290 290 290 290 290 290 290 291 291
291 291 291 291 291 291 290 290 289 288 288 288 288 288 288 289 289 289 289 289 289 289 289 289 289 289 289 289 289 289 289 289 289 288 288 287 287 287 288 287 287 286 286 286 286 286 286 286 286 286 286 286 286 286 286 286 287 287 287 288 288 289 289 289 289 289 288 289 289 289 288 289 289 289 289 289 289 290 290 290 290 290 290 290 290 291
292 292 292 292 291 291 290 289 288 288 288 288 288 288 288 289 289 289 289 289 289 289 289 290 290 289 289 289 289 289 289 288 288 288 287 287 287 288 287 287 286 286 285 285 285 285 285 286 286 286 286 286 286 286 286 286 287 287 288 288 288 288 288 288 288 288 288 288 288 288 288 288 288 289 289 289 289 290 290 290 290 290 290 290 291 291
292 292 292 291 291 290 289 289 288 288 288 288 288 288 289 289 289 289 289 289 289 289 290 290 290 289 289 288 288 288 288 288 287 287 287 288 288 288 287 286 286 285 285 285 285 285 285 285 285 286 286 286 286 286 286 286 287 287 287 287 287 287 287 287 287 287 287 287 288 288 288 288 288 288 289 289 289 289 290 290 290 290 290 290 291 291
292 292 291 291 290 289 289 288 288 288 288 288 288 289 289 289 289 289 289 289 289 290 290 290 289 289 288 288 288 288 287 287 287 287 288 288 288 287 286 286 285 285 285 285 285 285 285 285 285 285 286 286 286 286 286 286 286 286 286 286 286 287 287 287 287 287 287 287 288 288 288 288 288 288 288 288 289 289 289 289 290 290 290 290 290 290
292 291 290 289 289 289 288 288 288 288 288 288 288 289 289 289 289 289 289 289 290 290 290 289 289 288 288 288 287 287 287 287 287 288 288 288 287 286 286 285 285 285 285 284 284 284 285 285 285 285 285 285 285 285 285 285 285 285 286 286 286 286 286 287 287 287 287 287 287 288 288 288 288 288 288 288 288 289 289 289 289 289 289 290 290 290
290 290 290 289 289 289 288 288 288 288 288 288 289 289 290 290 290 289 289 289 289 289 289 288 288 287 287 287 287 287 287 287 287 288 288 287 286 286 285 285 285 284 284 284 284 284 284 284 284 284 284 284 284 284 285 285 285 285 286 286 286 286 286 286 286 287 287 287 287 287 287 287 287 287 288 288 288 288 289 289 289 289 289 289 290 290
290 290 290 289 289 289 288 288 288 288 288 288 289 289 290 290 290 289 289 289 288 288 287 287 287 287 287 287 287 286 286 286 287 287 287 286 286 285 285 285 285 284 284 284 284 284 284 284 284 284 284 284 285 285 285 285 285 285 285 286 286 286 286 286 286 286 287 287 287 287 287 287 287 287 287 288 288 288 288 288 289 289 289 289 289 289
290 290 290 289 289 289 288 288 288 288 288 289 289 290 290 290 290 289 288 288 287 287 286 286 286 287 287 286 286 286 286 286 286 286 286 285 285 285 285 285 284 284 284 284 284 284 284 284 284 284 284 285 285 285 285 285 285 285 285 285 285 285 286 286 286 286 286 286 287 287 287 287 287 288 288 288 288 288 288 288 288 288 289 289 289 289
290 290 289 289 289 288 288 288 288 288 288 289 290 290 290 290 289 288 287 287 286 286 286 286 286 286 286 285 285 285 285 285 285 285 286 285 285 285 284 284 284 284 284 284 284 284 284 284 284 284 285 285 285 285 285 285 285 285 285 285 285 285 286 286 286 286 286 286 287 287 287 287 287 288 288 288 288 288 288 288 288 288 288 288 289 289
290 289 289 289 289 289 289 288 288 288 289 290 291 290 290 289 288 287 287 286 286 286 286 285 285 285 285 285 284 284 285 285 286 286 286 285 285 284 284 284 284 284 284 284 284 284 284 284 284 285 285 285 285 284 284 284 284 285 285 285 285 285 286 286 286 286 286 286 286 287 287 287 287 287 288 288 288 288 288 288 288 288 288 288 288 289
290 290 289 289 289 289 289 289 289 289 290 291 291 290 289 288 287 286 286 286 285 285 285 285 285 285 284 284 284 284 285 286 286 286 285 285 284 284 284 284 284 283 284 284 284 284 284 284 284 285 285 284 284 284 284 284 284 285 285 285 285 286 286 286 286 286 286 286 286 286 287 287 287 287 288 288 288 288 288 288 288 288 288 288 288 289
290 290 290 290 289 289 289 289 289 289 290 291 290 289 288 287 286 285 285 285 285 285 285 284 284 284 284 284 284 285 285 286 286 285 285 284 284 284 284 284 284 284 284 284 284 284 284 284 284 284 284 284 284 284 284 284 285 285 285 286 286 286 286 286 286 286 287 286 287 287 287 287 287 287 288 288 288 288 288 288 288 288 288 288 288 289
291 291 291 290 290 290 290 290 290 290 290 290 289 288 287 286 285 285 285 285 284 284 284 284 284 284 284 284 284 285 285 285 285 285 284 284 284 284 284 284 284 284 283 283 284 284 284 284 284 284 284 284 284 284 284 285 285 285 286 286 286 286 286 287 287 287 287 287 287 287 287 287 287 287 287 288 288 288 288 288 288 287 288 288 288 288
291 291 291 291 291 290 290 290 290 290 290 289 288 287 286 285 285 285 284 284 284 284 284 284 284 284 285 285 285 285 285 285 284 284 284 284 284 284 284 284 284 284 283 283 283 283 284 284 284 284 284 284 284 284 285 285 285 285 286 286 286 286 287 287 287 287 287 287 287 287 287 287 287 288 288 288 288 288 287 287 287 287 288 288 288 289
291 291 291 291 291 291 290 290 290 290 289 288 287 286 285 285 285 284 284 284 284 284 284 284 284 285 285 285 285 285 285 284 284 284 284 284 284 283 283 284 284 284 283 283 283 283 284 284 284 284 284 284 284 284 285 285 285 286 286 286 286 287 287 287 287 287 287 287 287 287 287 288 288 288 288 288 288 288 287 287 287 287 287 288 289 289
290 290 290 291 291 290 290 290 290 289 289 288 287 286 285 285 284 284 284 284 284 284 284 284 285 285 285 285 285 284 284 284 284 284 283 284 283 283 284 284 284 283 283 283 283 283 284 284 284 284 284 284 284 285 285 285 285 286 286 286 287 287 287 287 287 287 287 287 288 288 288 288 288 288 288 288 288 288 288 288 288 287 288 288 289 290
290 290 290 290 290 290 290 290 290 289 288 287 286 285 285 284 284 284 283 284 284 284 284 284 284 285 284 284 284 284 284 284 284 284 283 283 283 283 284 284 284 284 283 283 283 283 283 284 284 284 284 284 284 284 285 285 285 286 286 286 287 287 287 288 288 288 288 288 288 288 288 288 288 288 288 288 288 288 288 288 288 288 288 288 289 289
290 290 291 291 290 290 290 290 290 289 288 287 286 285 284 284 284 283 283 284 284 284 284 284 284 284 284 283 283 283 283 283 283 283 283 283 283 283 284 284 284 284 283 283 283 283 283 283 284 284 284 284 284 284 285 285 285 285 286 286 287 287 288 288 288 288 288 288 288 288 288 288 288 288 288 288 288 288 288 289 288 289 289 289 289 289
291 291 291 291 291 291 290 290 290 289 288 286 285 284 284 284 284 283 283 284 284 284 284 284 284 284 283 283 283 283 283 283 283 283 283 283 283 284 284 284 284 284 283 283 283 283 283 283 283 284 284 284 284 284 285 285 285 285 285 286 287 287 288 288 288 287 287 287 287 288 288 288 288 288 288 288 288 288 288 289 289 289 289 289 289 289
292 292 292 292 291 291 290 290 289 288 287 286 285 284 284 284 284 283 283 284 284 284 284 284 284 284 283 283 283 283 283 283 283 283 283 283 284 284 284 284 284 283 283 283 283 283 282 282 282 283 283 284 284 284 285 285 285 285 285 286 287 287 288 288 287 287 287 287 287 287 288 288 288 288 288 288 288 288 288 288 288 289 289 289 289 289
293 292 292 291 291 291 290 290 289 288 286 285 284 284 284 284 284 283 283 283 284 284 284 284 284 284 283 283 283 283 283 283 283 283 283 284 284 284 284 284 283 283 283 283 283 282 282 282 282 282 283 284 284 285 285 284 285 285 285 286 286 287 287 287 287 287 287 287 287 287 287 287 287 288 288 288 288 288 288 288 288 289 289 289 289 289
291 291 291 291 291 290 290 289 288 287 285 284 284 284 284 284 284 283 283 283 283 284 284 284 284 283 283 283 283 283 283 283 283 283 284 284 284 284 284 283 283 283 283 283 282 282 282 282 281 281 282 283 284 285 285 285 285 285 285 286 286 287 287 287 286 286 286 286 287 287 287 287 287 287 287 287 288 288 288 288 288 289 289 289 289 289
291 291 291 291 290 290 290 289 287 286 285 284 284 284 284 284 284 283 283 283 283 283 283 283 283 283 283 283 283 283 283 283 283 283 284 284 284 284 283 283 283 283 283 282 282 282 281 281 281 281 281 282 283 284 285 285 285 285 286 286 287 287 287 287 286 286 286 286 286 286 287 287 287 287 287 287 287 287 288 288 288 288 289 289 289 289
291 291 291 291 290 290 289 288 287 285 285 284 284 285 285 284 284 283 283 283 283 283 283 283 283 283 283 283 283 282 283 283 283 284 284 284 283 283 283 283 283 283 282 282 282 281 281 281 281 281 281 282 282 283 284 285 285 286 286 286 287 287 287 287 287 286 286 286 286 286 287 287 287 287 287 287 287 287 287 288 288 288 289 289 289 289
291 291 291 290 290 289 289 288 287 286 285 285 285 285 285 284 283 283 283 283 282 283 283 283 283 283 283 283 282 282 283 283 283 284 283 283 283 282 282 282 282 282 282 282 281 281 280 280 280 281 281 282 282 282 283 283 284 285 286 287 287 287 287 287 287 287 286 286 286 286 287 287 287 287 287 287 287 287 287 287 288 288 288 289 289 289
290 290 290 290 290 289 289 288 287 286 285 285 285 285 284 284 283 283 283 282 282 282 283 283 283 283 283 282 282 282 283 283 283 283 283 282 282 282 282 282 282 282 282 282 281 281 280 280 280 280 280 281 282 282 282 283 284 285 286 287 287 287 287 287 287 287 287 286 286 286 287 287 287 287 287 287 287 287 287 287 287 288 288 288 289 289
289 289 289 289 290 290 290 289 288 286 285 285 285 284 284 283 283 283 283 282 282 283 283 283 283 283 283 282 282 282 283 283 283 282 282 282 282 282 282 282 282 282 282 282 281 281 280 280 280 281 281 281 281 281 282 283 284 285 286 286 287 287 287 287 287 287 287 286 286 286 287 286 286 286 286 286 286 286 286 286 287 287 287 288 288 288
289 289 289 290 290 290 290 289 288 287 285 285 285 284 284 283 283 283 283 283 283 282 283 283 283 283 283 282 282 282 282 282 282 282 282 282 282 282 282 282 282 282 282 281 281 281 280 280 281 281 281 281 281 281 282 283 284 285 285 285 286 286 287 287 287 287 286 286 286 286 286 286 286 286 286 286 286 286 286 286 286 286 287 287 288 288
288 289 290 290 290 290 290 289 288 287 285 285 285 284 283 283 283 283 283 283 283 282 282 282 283 283 283 282 282 282 282 282 282 282 282 282 282 282 282 282 282 282 281 281 281 281 280 280 280 280 280 280 281 281 283 284 285 285 285 285 285 286 287 287 287 287 286 286 286 286 286 286 286 286 286 286 286 286 286 286 286 286 286 287 287 287
288 289 290 290 290 290 290 289 288 286 285 285 284 284 283 283 283 283 283 283 282 282 282 282 282 282 282 282 282 282 282 282 282 282 282 282 282 282 282 282 282 281 281 281 281 281 281 281 281 281 280 281 281 282 284 285 285 285 286 285 285 286 286 287 287 287 287 287 286 286 286 286 286 286 286 286 286 286 286 286 286 286 286 287 287 287
289 289 290 289 290 290 290 288 287 286 285 285 284 284 283 283 283 283 283 282 282 282 282 282 282 282 282 282 282 282 282 281 281 281 281 282 282 282 282 282 281 281 281 281 281 281 281 281 281 281 281 281 282 283 284 285 285 285 286 286 286 285 285 286 286 287 287 287 286 286 286 286 286 285 286 286 286 286 286 286 286 286 287 287 287 287
288 289 289 289 289 289 289 287 286 286 285 284 284 283 283 283 283 283 283 282 282 282 282 282 282 282 282 282 282 282 281 281 281 281 281 281 282 282 282 282 281 281 281 281 281 281 281 281 281 281 282 282 283 284 284 285 285 285 285 286 286 286 286 287 287 287 287 286 286 286 286 286 285 285 286 286 286 286 286 286 286 287 287 287 287 287
288 288 288 289 289 289 288 286 286 285 285 284 284 283 283 283 283 283 282 282 282 282 282 282 282 282 282 282 282 281 281 281 281 281 281 281 281 282 282 282 281 281 281 281 281 281 281 281 281 282 283 283 284 284 284 285 285 285 285 286 286 286 287 287 287 287 287 286 286 286 286 286 285 285 285 286 286 286 287 287 287 287 287 287 287 287
289 289 289 289 289 288 287 286 285 285 284 284 283 283 283 283 283 283 282 282 282 282 282 282 282 282 282 282 282 281 281 281 281 281 281 281 281 282 282 282 282 282 282 281 281 281 281 281 282 282 283 284 284 285 284 284 285 285 285 286 286 287 287 287 287 287 286 286 286 286 286 286 285 285 286 286 286 287 287 287 287 287 287 287 287 288
288 289 289 289 288 287 286 285 285 284 284 284 283 283 283 283 283 283 282 282 282 282 282 282 282 282 282 282 282 281 281 281 281 281 281 281 282 282 282 282 282 282 282 282 282 281 281 282 282 283 283 284 284 284 284 284 285 285 285 286 286 287 287 287 287 287 287 286 286 286 286 286 285 285 286 286 286 287 287 287 288 288 288 288 288 288
288 288 288 288 287 286 285 285 284 284 284 284 284 283 283 283 283 283 283 282 282 282 282 282 281 282 282 282 282 281 281 281 281 281 281 281 282 282 282 282 282 282 283 283 282 282 281 282 282 283 283 283 283 284 284 285 285 285 286 286 286 287 287 287 287 287 287 287 287 286 286 286 286 286 286 286 286 287 287 288 288 288 288 288 289 289
288 288 287 287 286 286 285 285 284 284 284 284 284 284 283 283 283 283 283 282 282 282 282 281 281 281 281 282 282 281 281 280 280 280 281 281 281 281 282 282 282 282 283 283 284 283 282 282 282 282 282 282 283 283 284 285 285 286 286 286 287 287 287 287 287 287 287 287 287 287 286 286 286 286 286 286 287 287 287 288 288 288 289 289 289 289
287 287 287 287 286 286 285 285 284 284 284 284 284 284 284 283 283 283 283 282 282 282 282 281 281 281 281 281 281 281 280 280 280 280 280 280 281 281 281 281 282 282 282 283 284 284 283 282 282 281 281 281 282 283 284 285 285 286 286 287 287 287 287 287 287 287 287 287 287 287 287 287 287 287 287 287 287 287 287 288 288 288 289 289 289 289
Wind_Speed
31 31 30 30 30 31 31 31 32 32 33 32 31 30 29 29 27 26 25 25 24 24 24 24 23 23 22 22 22 22 22 22 22 22 22 23 23 24 25 25 25 26 26 26 26 26 26 25 25 25 25 26 26 25 24 23 21 21 21 21 21 21 23 24 25 25 24 22 20 18 17 18 18 19 19 20 21 21 22 22 23 24 24 24 24 24
31 31 30 30 30 31 32 32 32 32 33 32 31 30 30 29 28 26 25 24 24 23 23 23 23 23 22 22 22 22 23 23 24 24 25 26 26 26 26 25 25 25 25 25 26 25 25 24 24 24 24 24 24 22 21 20 20 20 20 20 21 22 23 24 25 25 24 22 20 18 19 18 19 20 20 21 22 22 22 23 24 24 24 23 23 23
31 31 30 30 30 31 33 33 33 32 32 32 31 30 30 29 28 27 26 25 24 23 23 23 23 23 23 23 23 23 24 25 26 27 28 28 29 28 27 25 25 24 24 24 24 24 23 23 22 22 23 23 22 21 20 20 21 22 23 24 24 25 25 25 26 26 26 25 24 24 24 24 23 24 24 24 24 24 25 25 25 25 24 24 23 23
30 30 31 31 32 32 33 33 33 32 31 31 30 30 29 29 29 28 26 25 25 24 23 23 23 23 23 24 24 25 26 27 28 28 29 30 30 29 28 26 25 24 23 23 23 22 22 22 22 22 22 22 22 21 21 23 24 25 25 26 26 26 26 26 27 27 27 27 28 29 29 29 28 27 26 26 26 27 27 26 25 25 24 24 24 24
30 30 31 31 32 33 34 33 32 32 31 31 30 30 30 29 29 28 27 26 25 25 24 23 23 23 24 25 26 27 27 28 29 29 30 31 31 30 29 27 26 24 23 22 22 22 22 22 22 23 23 23 23 24 25 25 25 25 25 25 25 26 26 26 27 27 27 28 28 29 29 29 29 29 29 28 28 29 28 28 27 26 25 24 24 24
30 30 31 31 32 33 33 33 32 31 31 31 31 31 31 30 29 29 28 27 26 26 25 24 24 25 25 26 27 28 29 29 30 30 31 32 32 32 31 29 27 25 24 22 22 22 22 22 23 24 24 24 25 27 28 28 28 26 25 25 25 25 25 25 26 26 26 27 27 27 28 28 28 28 29 29 29 30 30 29 28 27 27 26 25 24
31 31 31 31 32 32 32 32 31 31 31 32 32 32 32 31 30 29 28 27 27 26 26 26 26 26 27 28 29 30 30 30 30 31 31 32 32 32 32 31 29 27 25 23 23 22 22 23 24 25 25 26 28 29 30 31 30 29 28 27 27 26 26 26 26 25 26 26 27 28 28 27 27 28 29 29 30 30 30 29 29 28 28 27 26 25
31 32 31 31 31 31 31 31 31 31 31 31 32 33 33 32 31 29 28 28 27 27 27 28 28 28 28 29 30 31 31 31 31 31 31 32 32 32 32 31 30 29 27 25 24 24 24 25 26 27 28 29 30 31 32 32 32 31 31 30 29 29 28 27 27 26 26 27 27 28 28 28 28 29 29 30 30 30 30 29 29 29 28 28 27 27
31 32 31 30 29 30 31 32 31 30 30 30 30 31 32 33 32 30 29 28 28 27 28 28 29 30 30 30 31 32 32 31 29 29 29 30 31 31 31 31 31 30 29 27 26 26 26 27 28 29 30 31 32 32 32 32 32 32 32 32 32 31 30 29 28 28 28 28 28 28 28 28 29 29 29 30 30 30 30 29 29 29 29 29 29 29
30 30 30 29 28 28 29 30 31 30 30 29 29 30 31 31 32 31 31 30 29 28 28 28 29 31 32 32 32 32 31 30 28 27 26 28 29 29 29 30 30 31 30 29 28 28 28 29 30 31 32 32 32 32 32 32 32 32 32 33 32 32 31 30 29 28 28 28 28 29 29 29 29 29 29 29 29 29 29 29 29 29 29 29 30 30
30 29 29 29 29 28 27 28 28 29 30 30 31 31 30 29 29 30 31 30 30 30 30 29 30 31 33 34 33 31 30 28 27 26 26 28 29 29 30 30 30 30 31 30 30 30 31 32 32 33 32 32 32 32 31 31 32 32 32 32 31 31 30 29 28 28 28 28 28 28 29 30 30 30 29 29 29 29 29 29 29 29 29 29 30 31
29 29 29 28 28 28 27 27 28 29 30 31 32 33 31 28 26 27 29 30 30 31 32 32 32 31 32 32 32 31 29 26 25 26 29 31 32 33 33 32 32 32 33 33 34 35 35 36 35 34 32 31 30 30 30 30 30 31 31 30 29 28 27 27 27 27 28 28 28 29 29 29 30 30 30 31 31 31 31 31 30 30 30 30 30 31
29 29 29 28 28 27 27 27 28 29 30 30 31 31 30 28 26 26 28 29 30 32 33 33 33 32 31 30 30 30 28 27 27 29 32 35 36 37 37 36 36 37 37 38 39 39 39 38 35 33 30 29 28 27 28 28 29 29 29 28 27 26 26 27 28 29 29 29 29 29 29 29 30 31 31 32 32 31 31 31 31 30 30 30 30 30
29 28 28 27 26 26 25 26 27 28 29 30 30 29 28 27 27 28 30 31 32 32 32 33 32 31 29 28 28 28 28 27 29 33 36 39 39 39 38 37 37 38 39 39 39 39 38 35 32 29 27 26 26 26 27 27 28 27 27 26 26 26 27 28 29 30 31 31 30 30 30 30 30 30 30 30 29 29 28 29 29 29 29 29 29 28
28 27 25 24 24 24 25 27 29 31 31 30 28 26 27 28 28 29 31 33 33 33 32 32 31 29 27 25 25 26 27 28 32 36 39 40 39 37 35 34 36 37 38 37 36 35 33 30 27 26 25 25 25 26 27 27 27 27 26 26 26 27 28 28 29 30 30 30 30 30 29 29 29 28 27 27 26 25 25 25 26 26 26 26 26 27
25 23 23 24 25 27 28 29 31 31 30 28 26 26 28 29 30 31 31 32 33 33 31 30 29 29 28 26 25 25 27 31 35 38 40 40 37 34 31 32 34 36 36 35 33 31 29 27 25 25 25 26 27 27 28 28 28 28 28 28 28 28 29 29 29 29 29 29 28 28 28 27 27 26 25 24 24 24 24 24 23 23 22 23 23 24
23 23 24 26 28 30 32 31 31 29 28 27 27 27 29 30 31 32 32 32 32 30 28 26 27 29 30 30 30 30 31 33 36 37 37 36 33 31 30 31 33 35 34 32 31 29 27 26 25 25 26 27 28 29 29 30 30 29 29 28 28 28 28 28 27 27 26 26 25 25 25 25 25 25 24 24 24 24 24 24 23 22 21 21 21 22
26 26 27 28 29 31 31 30 29 27 26 26 27 29 30 31 32 32 32 30 29 27 27 27 28 30 31 32 33 33 34 34 34 34 34 33 32 31 32 33 33 34 33 32 30 28 27 26 26 27 28 28 29 29 29 28 28 27 26 25 25 25 25 24 24 23 23 23 23 23 24 24 24 24 24 24 25 25 25 25 24 23 22 22 21 22
29 29 28 29 30 30 29 28 27 26 26 27 28 30 32 33 32 31 29 27 26 27 28 30 31 32 32 33 35 36 34 32 32 32 33 32 33 33 34 33 33 33 33 32 30 29 28 28 28 29 28 28 27 26 25 23 22 22 22 22 22 22 22 22 22 21 21 22 22 23 23 24 24 24 24 24 24 25 25 25 25 24 23 23 23 23
30 30 29 29 29 28 28 26 25 25 25 26 28 30 32 32 31 28 27 26 27 29 31 32 32 33 33 33 33 34 33 32 31 32 32 32 32 32 33 32 32 32 32 32 30 29 29 30 30 29 28 26 24 21 20 19 20 21 21 22 22 22 21 21 21 21 21 22 22 22 22 23 23 23 23 23 24 24 25 25 25 25 24 24 24 24
30 30 28 26 25 25 25 25 24 24 24 25 27 29 30 29 27 26 26 28 30 32 33 32 31 31 32 32 32 33 33 31 31 31 31 30 30 30 30 31 31 31 31 30 30 30 30 30 30 29 26 24 21 19 19 19 20 21 21 21 21 21 20 20 20 20 20 20 21 21 21 21 21 22 22 22 23 23 24 25 25 25 25 25 24 25
28 27 24 22 21 22 23 24 24 23 23 24 26 27 26 24 25 26 29 31 32 32 31 31 31 31 32 32 33 32 30 29 28 28 28 27 27 28 30 30 30 30 29 29 29 30 30 30 29 27 25 22 20 20 20 20 21 21 20 20 19 19 19 19 19 19 19 19 19 19 20 20 21 21 22 22 23 23 24 24 24 25 25 24 24 24
23 22 21 20 20 20 22 23 23 23 23 23 23 23 22 23 26 29 32 32 32 31 30 31 32 32 31 31 30 28 26 24 23 24 24 24 26 28 30 30 30 30 28 28 29 30 30 29 28 26 24 23 22 21 21 21 21 20 18 17 16 16 16 16 16 16 17 17 18 18 18 19 20 21 22 23 23 23 23 23 24 23 23 23 23 24
19 19 19 19 20 20 22 23 23 23 23 22 21 22 24 27 29 31 31 30 30 30 30 31 31 30 29 28 27 25 23 22 21 22 23 24 26 28 29 29 29 28 28 28 29 30 30 29 28 27 25 24 23 23 23 22 20 18 16 15 14 14 14 14 14 15 16 17 17 18 18 19 20 21 22 23 23 23 23 23 22 22 22 22 22 23
19 19 20 20 20 21 22 23 23 23 22 21 22 24 26 29 30 30 30 30 30 29 29 29 29 28 28 27 25 24 22 21 22 23 24 25 26 28 29 29 28 27 28 28 29 29 30 30 29 28 26 25 25 24 24 22 20 18 15 14 13 13 13 14 14 15 16 17 17 18 19 19 20 21 22 22 22 22 22 22 22 22 21 21 22 23
21 22 21 21 20 20 21 22 22 22 22 22 23 25 27 28 29 30 30 30 29 29 28 28 28 28 27 26 24 23 23 23 23 23 23 25 26 28 29 29 27 27 28 29 29 29 29 30 30 29 27 26 26 26 24 22 20 17 16 15 14 14 15 15 15 16 16 17 17 18 18 19 20 21 21 22 22 22 22 21 21 21 20 20 21 22
23 23 22 21 21 21 21 22 22 22 22 22 23 25 26 27 28 29 30 29 28 27 26 26 27 27 26 24 23 22 23 23 23 22 22 24 26 27 28 28 27 27 27 28 28 28 28 29 29 29 28 28 28 27 25 22 20 18 17 16 15 16 16 16 16 16 16 16 17 17 18 19 20 20 20 21 21 21 21 20 20 19 19 18 19 20
23 23 23 23 23 23 23 23 23 22 22 22 23 24 25 26 27 27 27 27 25 24 23 23 24 25 24 23 22 22 23 22 21 21 22 23 25 26 27 27 26 26 26 27 28 29 28 28 28 28 28 29 29 28 25 22 20 19 18 17 16 17 17 17 16 16 16 16 16 16 17 18 19 19 19 20 20 20 20 19 19 18 17 16 17 19
24 24 24 24 24 25 25 24 24 24 23 22 23 23 24 25 25 25 25 24 22 21 20 21 21 22 23 23 24 24 23 21 20 21 23 24 25 26 26 26 25 24 25 26 29 30 30 29 28 28 29 30 30 28 25 22 21 20 19 18 17 17 17 17 16 15 15 15 15 15 16 17 17 18 18 18 18 18 18 18 17 16 16 16 18 19
25 25 24 25 25 26 26 26 26 24 22 22 22 23 24 24 24 23 22 21 19 18 19 19 20 21 23 24 25 24 22 21 22 23 24 24 25 25 25 25 24 24 24 26 27 29 30 31 31 30 30 31 30 28 25 23 22 21 20 19 18 17 17 16 15 15 14 14 15 15 16 16 16 16 16 16 16 17 17 17 16 16 16 18 19 19
27 27 26 26 25 26 26 26 25 23 21 21 21 22 22 22 22 21 19 18 17 17 17 19 20 21 22 24 23 21 21 24 26 26 25 24 24 24 25 25 24 24 23 23 24 25 27 31 33 33 32 31 30 28 25 23 22 22 22 20 19 18 17 16 15 14 14 14 15 15 16 16 15 15 15 15 15 15 16 16 15 16 17 18 19 18
29 29 28 26 26 26 26 25 24 21 20 20 20 20 21 21 21 19 18 16 16 16 17 18 19 20 21 22 22 21 23 26 27 26 24 22 23 23 24 24 24 23 23 23 22 22 23 28 33 36 33 32 30 27 25 23 23 23 23 22 20 19 17 16 15 14 14 15 15 16 16 16 16 16 16 16 16 16 16 15 16 16 17 18 19 18
29 28 26 26 26 26 25 23 21 19 18 18 18 19 20 20 20 19 17 16 15 15 16 17 18 19 21 22 23 24 25 26 26 24 21 20 21 22 23 22 22 22 23 24 25 25 24 26 30 34 33 31 29 27 25 23 22 23 23 22 21 19 18 17 16 16 16 16 17 18 18 19 19 19 18 18 17 17 16 16 16 16 17 18 19 19
27 26 26 27 26 25 22 19 18 17 17 17 17 18 19 20 20 18 16 15 15 15 15 16 17 19 20 22 23 24 25 25 24 21 19 17 18 20 20 20 20 22 25 27 28 28 27 28 29 30 31 31 29 26 24 23 23 22 22 22 21 20 19 18 17 18 18 18 19 20 21 21 21 21 21 20 19 18 18 17 17 16 16 17 17 18
28 28 28 26 24 20 17 16 16 16 16 16 16 18 19 20 19 18 16 15 15 15 15 16 17 18 19 21 22 24 24 24 22 19 16 14 14 16 17 19 21 24 26 28 29 29 28 29 28 28 29 30 29 26 24 23 23 22 22 21 20 19 18 18 18 19 19 20 21 22 22 22 22 22 22 21 20 19 18 18 17 17 16 16 16 17
28 27 25 22 18 15 14 15 15 15 15 15 17 18 20 20 19 17 16 15 15 15 16 16 16 17 18 19 21 22 22 21 19 16 14 13 13 15 17 20 23 25 27 29 29 29 29 29 29 28 27 28 28 27 24 22 22 22 21 20 19 18 17 17 18 19 20 21 22 23 23 23 23 22 22 21 20 20 19 18 17 17 16 16 16 16
23 21 19 16 14 14 14 14 14 14 15 16 17 18 19 18 17 16 15 15 15 16 16 16 17 17 18 18 19 19 19 18 16 14 12 13 14 17 19 22 24 26 27 29 29 30 29 29 29 29 28 27 26 27 26 24 23 22 21 20 19 19 18 18 18 19 20 21 22 23 23 23 23 23 22 22 21 20 19 18 17 16 16 15 15 15
18 17 17 17 16 15 14 14 14 15 15 16 17 17 17 16 16 15 15 15 16 16 16 16 17 17 17 17 17 17 16 15 13 12 13 14 16 19 21 23 25 26 28 29 29 28 27 26 27 27 27 27 27 26 26 26 25 23 22 20 20 19 19 19 19 20 20 21 22 23 24 24 24 24 24 23 23 22 21 20 18 17 16 15 14 14
25 25 24 23 21 18 16 15 16 16 16 16 16 16 15 15 14 14 15 15 16 16 16 16 17 17 17 17 16 15 14 13 12 13 14 16 18 20 21 23 25 27 28 29 28 27 25 25 25 25 26 27 27 27 25 24 24 23 22 21 21 21 21 21 21 21 21 22 22 23 25 25 26 26 26 25 24 24 23 22 21 19 18 17 16 14
28 29 29 27 24 21 19 18 18 18 17 16 15 14 14 14 14 15 15 16 16 16 16 16 16 16 16 16 15 14 13 13 13 14 15 17 19 20 22 24 26 27 28 28 27 25 24 23 23 23 23 25 26 27 26 23 22 21 21 22 23 23 23 22 22 22 22 22 22 24 25 26 27 27 27 26 25 24 24 23 22 21 20 19 19 18
27 28 29 27 25 22 20 20 20 18 16 14 13 13 13 13 14 15 16 16 16 16 16 16 16 16 15 15 14 14 14 14 14 15 17 18 19 20 22 24 25 26 27 26 24 22 21 20 20 21 22 23 24 25 24 22 20 19 20 21 23 24 24 23 22 22 22 22 23 24 26 27 28 28 27 26 25 24 23 22 22 21 20 20 19 19
27 29 29 26 22 19 20 21 20 18 15 13 12 12 12 13 15 16 17 17 17 16 15 15 15 16 16 16 15 14 13 14 15 16 17 19 20 21 22 24 25 25 24 23 21 19 18 18 18 19 20 20 21 22 22 20 19 18 19 21 23 24 24 23 22 21 21 22 23 25 26 27 28 28 27 26 24 23 22 21 20 20 20 19 19 19
28 29 27 23 19 18 20 21 19 16 12 11 11 11 12 13 15 16 17 18 17 16 15 15 15 16 17 17 17 15 14 14 15 16 17 19 20 21 22 23 23 23 21 20 18 17 17 17 17 17 18 18 18 19 19 20 19 19 19 21 22 24 25 24 23 22 22 23 24 25 26 27 27 27 26 25 24 22 21 19 19 18 18 18 19 19
27 25 22 19 18 19 21 19 16 13 10 10 10 10 11 13 15 16 17 17 17 15 14 14 15 16 17 18 18 17 15 15 15 16 18 19 20 21 22 22 21 20 18 16 16 16 17 17 17 16 16 16 15 16 17 18 19 20 20 21 21 21 22 22 22 22 22 23 24 25 25 26 26 26 26 25 23 21 20 18 17 17 17 17 18 18
24 22 21 20 22 22 20 16 13 10 9 8 9 10 11 13 14 16 17 17 16 15 14 14 15 16 17 18 18 18 17 16 16 17 18 19 20 21 21 21 19 17 15 14 14 15 16 17 17 16 14 14 13 13 15 17 18 20 20 20 20 19 18 18 19 20 21 23 24 25 25 25 26 27 27 26 24 21 19 17 17 16 17 17 17 17
22 22 23 24 24 21 17 13 10 8 7 7 8 9 11 13 14 15 16 16 16 15 14 13 14 16 17 18 19 19 19 19 19 19 20 20 20 20 19 18 17 15 13 12 13 14 15 16 15 15 13 13 12 12 14 15 17 18 19 19 18 17 16 16 17 18 20 22 23 24 25 26 27 27 27 27 25 22 19 17 16 15 16 16 17 17
22 23 24 24 22 17 13 10 8 7 6 6 8 9 11 13 14 15 16 16 16 15 14 13 14 15 17 18 18 19 20 20 21 22 22 21 20 19 18 17 15 14 13 12 12 13 13 14 13 13 12 12 13 13 14 14 15 17 17 17 16 16 15 16 17 18 19 20 22 24 26 27 27 28 28 27 25 22 19 16 15 14 15 16 16 17
21 23 24 21 17 12 9 8 6 5 5 6 8 10 11 13 14 15 16 16 16 15 14 13 13 14 16 17 18 19 20 21 22 23 22 21 19 18 17 16 15 14 13 12 12 11 11 11 11 11 11 11 13 14 14 14 14 15 16 15 15 15 16 17 17 18 18 20 22 24 25 26 27 27 27 27 25 23 20 18 16 15 15 15 16 17
19 21 20 16 12 9 8 6 5 5 5 7 8 10 11 13 14 15 16 16 16 15 13 13 13 14 16 17 19 20 21 22 22 21 21 20 18 18 17 17 16 15 14 13 11 9 8 8 9 9 10 10 11 13 14 14 14 14 14 14 14 15 16 17 18 18 19 20 22 23 25 25 25 25 26 26 26 25 23 20 19 17 17 16 16 16
17 17 15 12 9 8 7 6 5 5 6 7 9 11 12 13 14 15 16 16 16 15 13 13 13 14 16 18 19 21 22 22 21 20 19 19 19 19 19 18 18 17 16 15 13 10 6 5 6 7 9 9 10 11 13 14 14 13 13 13 13 14 16 17 18 19 19 21 23 24 24 25 24 24 24 25 25 25 25 24 22 21 19 18 17 16
13 13 12 10 9 8 7 6 5 5 7 8 10 11 12 13 15 16 16 16 16 15 14 13 12 13 15 17 19 21 21 20 19 17 17 18 19 19 20 20 20 20 19 18 16 14 10 7 4 3 5 7 8 9 11 13 14 14 13 13 13 14 16 18 19 20 21 23 24 24 24 24 24 24 24 24 25 26 27 26 25 23 21 19 17 16
Wind_Direction
311 313 315 317 317 318 319 320 321 322 322 324 325 325 326 325 325 325 326 326 326 325 324 324 323 323 324 326 328 331 334 336 336 336 335 334 331 327 324 322 320 318 317 316 315 313 311 310 309 308 307 305 304 305 306 306 304 300 297 298 303 308 313 315 317 317 315 311 307 306 307 305 304 304 305 304 304 302 298 297 297 298 299 300 300 300
311 313 314 316 316 316 317 318 319 320 321 322 324 325 326 326 326 326 327 327 327 327 326 326 325 324 324 326 328 330 333 337 339 341 341 339 336 332 329 325 322 319 317 316 315 313 313 312 312 311 309 307 307 307 309 308 307 305 304 306 308 310 312 314 316 316 314 312 312 314 315 314 312 311 311 310 309 307 306 304 303 304 305 305 305 306
311 313 314 314 315 314 315 317 318 320 321 322 324 325 326 326 326 327 329 329 329 329 329 328 328 327 327 328 329 331 334 336 339 340 340 338 337 334 331 327 324 320 317 315 314 313 314 314 313 311 309 309 310 310 310 310 310 311 311 311 311 311 311 311 312 312 310 309 310 311 312 312 312 311 311 310 310 309 308 307 306 306 306 305 305 306
311 312 313 313 313 313 314 316 318 320 321 323 324 325 326 327 327 329 330 331 331 331 331 330 330 330 330 331 332 334 335 337 337 337 336 336 336 335 334 331 326 323 319 316 314 313 314 313 311 309 309 310 312 313 313 313 313 313 312 312 311 311 311 310 309 309 307 306 306 307 308 309 309 309 308 308 307 307 307 306 306 306 306 304 304 304
310 310 311 312 312 313 314 316 319 321 323 324 325 326 327 327 328 330 332 332 332 332 331 332 332 332 333 334 335 336 336 336 335 334 335 336 337 337 335 333 330 326 322 318 315 314 313 310 308 306 307 308 311 314 314 314 313 312 311 310 310 310 310 309 308 307 306 305 304 306 307 306 306 305 304 304 303 303 303 303 304 304 304 304 304 303
309 309 310 311 312 313 315 318 320 322 324 325 326 326 327 328 330 331 332 332 332 331 331 332 333 334 335 336 336 335 334 333 332 333 334 336 337 337 336 334 331 328 325 321 318 315 311 308 305 304 305 307 310 312 313 313 312 311 310 309 309 309 308 307 306 304 303 303 303 304 304 303 301 300 299 297 297 297 299 300 301 301 302 303 303 302
308 309 311 312 313 315 317 319 321 323 325 326 326 327 327 328 330 331 331 331 330 330 330 332 334 335 336 336 334 333 331 331 331 332 333 335 336 336 335 333 331 328 325 322 318 314 309 306 305 306 307 308 309 310 310 311 311 311 310 310 310 309 308 307 305 303 302 302 302 302 302 300 298 296 295 293 293 293 295 296 297 298 299 300 300 300
308 310 312 314 316 317 318 319 321 323 325 325 325 325 326 327 328 329 329 329 329 330 331 332 334 335 335 334 333 331 330 329 329 330 332 334 335 335 334 332 329 326 324 321 316 312 308 307 307 308 309 309 309 308 308 309 309 310 310 311 310 310 309 308 306 305 304 303 302 301 300 298 297 295 294 293 292 292 293 294 295 295 295 296 296 296
310 312 314 315 316 316 317 318 320 322 324 323 322 321 322 324 326 327 327 328 329 331 332 332 332 332 332 333 333 332 330 328 327 328 330 333 334 334 332 330 328 325 322 319 316 312 310 309 310 310 310 309 308 307 307 307 308 308 309 309 309 309 308 308 307 306 305 303 302 300 299 297 296 295 294 295 295 295 295 295 295 294 294 294 293 293
312 313 314 315 315 315 315 315 317 320 321 320 318 317 318 321 323 325 326 327 329 331 332 331 329 329 331 333 334 334 331 327 325 324 327 329 330 330 329 327 325 323 320 317 315 312 311 311 311 310 310 308 307 307 307 307 307 307 307 308 308 308 307 306 305 304 302 300 299 298 297 295 295 294 295 296 297 297 296 296 295 295 295 294 292 290
312 312 312 313 313 313 312 312 314 316 317 316 316 316 318 320 323 324 324 324 327 330 331 330 329 330 332 333 333 332 330 326 323 322 324 325 326 326 325 324 322 319 316 313 311 309 309 310 310 310 309 308 306 306 305 305 306 306 306 307 308 307 306 304 302 300 298 296 296 295 293 293 293 294 295 296 297 297 296 294 293 293 293 293 290 287
310 310 309 309 310 311 310 310 311 312 313 314 315 316 318 322 324 324 322 320 323 327 329 330 329 329 330 331 331 330 327 323 320 320 321 321 321 321 320 319 317 314 311 309 307 307 308 309 310 310 309 307 305 304 304 303 304 304 305 307 308 307 305 303 300 298 296 294 293 292 291 293 295 296 297 297 297 296 295 294 293 291 291 290 289 287
307 307 307 307 307 308 309 310 310 310 310 311 313 315 318 323 325 324 321 319 321 325 328 327 326 326 327 328 328 327 324 320 317 317 318 318 317 317 316 314 313 312 310 308 307 307 309 311 312 311 309 307 305 304 303 302 303 303 305 307 307 306 304 302 300 297 294 293 292 293 294 296 298 299 299 299 298 297 296 295 293 292 290 289 288 287
305 306 306 305 305 305 306 307 307 307 308 310 314 318 321 323 324 324 322 321 322 324 324 322 320 321 323 324 324 323 320 317 315 315 315 315 315 314 313 313 313 313 313 312 311 311 312 313 313 312 309 307 305 304 303 302 303 304 305 306 305 303 302 301 300 297 295 295 296 298 300 300 300 300 300 300 299 298 297 296 295 293 291 289 287 286
304 304 303 302 301 302 302 302 303 305 308 313 318 322 324 324 324 323 321 319 319 319 319 317 316 317 318 320 321 320 316 314 315 315 315 314 313 313 314 316 317 318 318 317 316 316 316 315 313 311 308 306 304 303 302 301 301 302 302 302 302 301 301 301 299 298 298 299 300 301 301 301 300 300 300 300 301 301 301 300 298 296 293 290 288 286
303 302 300 299 299 298 299 300 303 307 312 318 322 324 324 323 322 320 316 314 314 315 315 315 316 316 315 315 315 315 314 315 316 317 315 313 312 314 318 322 323 322 321 320 319 318 317 315 311 308 306 303 301 300 299 299 299 299 299 300 300 300 300 298 298 298 299 300 301 300 300 299 299 298 299 301 303 305 307 307 305 301 297 293 290 288
300 299 298 297 297 298 299 303 308 312 316 320 323 324 323 320 318 316 312 311 312 312 313 314 316 316 314 313 313 314 315 318 319 318 314 311 312 318 323 325 324 322 320 319 318 317 316 313 310 306 303 301 300 299 298 298 298 298 299 300 301 302 301 300 300 301 301 301 300 299 299 299 299 298 299 301 303 304 307 309 309 307 304 300 296 293
295 294 294 295 296 298 302 307 311 315 318 320 322 321 320 317 314 312 310 311 312 313 314 314 314 313 313 312 313 316 319 321 320 316 312 312 315 320 323 324 322 321 320 319 319 318 316 313 310 307 305 304 303 302 301 300 301 302 304 305 305 305 304 304 305 304 303 301 300 299 299 299 299 299 300 300 301 300 302 304 306 307 305 303 302 299
290 290 291 293 296 300 304 309 313 316 318 320 320 319 317 314 312 311 311 313 315 315 314 313 312 311 311 311 314 317 320 321 318 314 311 313 316 318 320 321 321 321 320 321 321 320 319 317 314 313 311 311 310 309 308 309 310 312 312 311 310 309 308 307 307 306 303 302 301 300 299 300 301 301 300 299 298 298 298 300 301 302 302 303 303 302
287 288 290 294 298 302 305 308 311 314 317 317 317 314 312 311 312 313 315 317 315 313 312 312 312 312 312 312 314 315 316 316 314 312 311 312 313 315 317 320 321 321 321 322 323 323 322 321 320 320 320 320 320 320 321 321 320 317 315 313 312 311 310 309 307 305 304 303 303 304 304 304 304 304 303 301 299 298 297 297 297 297 297 297 298 298
286 289 292 296 299 301 303 306 310 313 315 315 313 311 311 313 315 317 317 316 314 313 313 312 311 311 311 310 310 310 311 312 312 311 309 309 311 314 317 320 322 322 322 322 323 324 324 323 323 325 327 329 331 332 331 327 322 318 317 315 314 313 312 310 308 307 307 307 307 307 308 308 308 307 306 304 302 300 298 296 295 294 293 293 294 296
287 290 294 296 298 299 302 306 309 312 314 313 311 311 314 318 319 317 314 313 313 312 312 310 308 307 307 307 308 309 312 313 311 308 308 310 312 315 319 322 323 323 321 321 322 324 325 325 327 330 333 337 339 338 334 329 325 322 320 319 317 316 315 313 312 311 310 310 310 310 310 310 310 309 308 306 304 302 299 297 295 294 293 292 293 294
288 291 295 297 299 301 304 307 310 313 314 313 312 314 317 317 314 312 311 312 311 310 308 307 306 306 308 310 313 317 320 317 311 307 309 312 315 317 321 323 324 323 320 319 321 324 326 327 330 334 339 342 342 340 336 333 330 329 328 326 324 322 320 318 317 316 315 314 313 312 311 310 310 309 308 307 305 303 301 299 297 295 293 293 293 294
292 294 298 301 303 306 309 310 312 314 314 312 311 311 311 311 311 311 311 310 309 307 306 306 307 309 311 315 320 323 323 318 312 311 314 315 315 317 320 323 323 321 319 319 321 324 327 329 333 337 340 342 342 340 338 336 336 337 337 336 334 332 330 327 325 323 321 318 316 315 314 312 310 310 309 308 307 305 303 301 299 296 294 294 294 294
299 300 303 305 308 310 311 310 310 309 307 305 305 306 309 310 311 311 310 308 306 305 305 307 309 311 312 316 320 322 320 317 315 316 319 317 315 316 319 322 322 320 318 320 323 326 328 330 333 337 339 340 339 339 338 339 341 344 345 346 345 344 341 338 334 330 325 321 318 316 315 313 312 311 310 310 309 308 306 304 302 299 297 296 295 294
302 302 303 304 306 306 304 302 300 299 296 296 300 305 309 310 311 310 308 307 306 307 309 310 312 312 313 316 316 316 314 313 314 317 318 316 314 315 318 321 322 320 319 322 325 327 328 329 331 334 336 337 337 338 339 342 346 350 352 353 353 351 348 344 340 336 330 326 322 319 316 315 313 313 312 311 310 309 308 306 304 301 299 298 298 297
298 296 295 294 295 296 296 295 294 292 291 295 302 308 310 311 311 309 308 308 309 310 312 314 314 314 314 313 312 310 310 312 314 317 316 314 312 312 315 320 323 323 322 324 326 326 325 326 328 331 333 334 335 337 340 344 350 354 357 358 357 355 351 347 343 339 334 329 325 322 320 317 316 316 315 313 312 311 310 308 306 303 301 301 303 304
293 291 290 289 290 291 293 294 294 294 295 301 307 311 312 312 310 308 307 308 309 311 313 316 317 316 315 313 311 311 312 315 317 317 315 313 311 311 315 322 326 326 325 323 324 325 324 324 326 329 330 332 334 336 341 347 353 357 359 360 358 355 352 349 346 342 338 335 331 328 325 323 321 319 317 315 313 312 312 311 309 305 302 304 309 312
292 291 290 290 290 292 294 295 295 296 298 305 311 314 314 312 309 307 306 307 308 311 316 318 318 317 315 315 315 316 317 318 318 317 317 315 313 314 319 324 328 328 327 324 324 324 324 324 326 327 328 329 332 336 341 348 354 357 359 359 357 354 352 351 349 346 343 341 339 336 333 330 326 322 319 316 314 314 315 315 313 309 305 309 315 318
289 288 287 287 288 290 292 294 294 296 300 307 313 316 315 312 309 305 304 304 307 312 316 318 317 317 317 319 320 320 319 318 318 320 321 319 317 319 323 326 328 329 328 326 325 324 323 324 325 326 326 328 331 335 341 347 352 354 355 355 353 353 353 353 353 351 348 345 343 341 338 334 330 325 321 318 317 317 318 319 316 312 310 313 318 321
285 284 282 282 283 286 289 291 292 294 301 310 314 315 313 310 307 304 301 302 306 311 314 315 315 317 319 321 321 318 315 316 320 324 326 323 321 321 324 325 326 327 328 327 325 323 321 322 324 326 327 328 331 335 340 344 348 350 350 350 350 351 355 356 355 351 347 344 343 342 340 336 332 327 323 321 320 321 321 321 318 315 313 314 315 316
283 279 277 277 279 283 286 287 289 294 304 311 314 313 311 308 305 302 300 301 305 310 313 314 315 317 319 320 318 314 313 316 322 327 329 325 322 321 324 324 324 325 325 324 322 321 318 318 320 324 327 328 330 333 338 342 344 346 346 347 347 350 355 356 353 348 344 343 342 342 341 339 335 331 328 325 324 323 322 321 320 318 316 314 312 310
282 278 275 276 278 280 281 282 288 297 308 311 312 311 310 308 306 302 300 301 305 310 313 315 317 318 319 318 317 315 314 318 323 327 328 324 322 322 323 324 323 322 321 321 321 320 317 315 317 320 324 327 329 332 336 339 341 343 344 344 346 350 354 354 350 345 343 342 343 344 344 343 340 337 334 330 327 325 323 322 321 320 317 314 311 307
284 281 279 277 276 276 276 282 293 304 310 310 309 310 310 310 308 305 301 301 304 309 313 315 317 319 319 318 317 316 316 319 323 326 324 322 321 323 323 323 322 321 321 322 322 321 319 317 316 317 320 324 328 332 334 336 338 340 342 344 345 348 352 352 349 346 344 344 346 347 347 346 344 342 339 336 333 330 327 326 324 322 319 316 313 309
286 283 278 273 270 271 277 291 304 310 310 308 308 310 312 312 311 308 304 303 304 307 311 314 316 318 318 318 317 316 316 319 322 323 320 317 318 320 321 320 320 321 322 323 323 322 320 318 316 316 317 320 325 330 335 335 336 338 341 342 344 347 351 352 350 347 345 347 347 348 347 346 345 344 342 340 338 334 331 329 326 325 323 321 318 313
281 276 269 265 266 276 293 306 311 311 308 306 308 311 313 314 313 311 308 305 305 306 308 311 314 315 316 316 315 315 316 318 320 320 317 314 315 317 318 319 321 322 323 323 322 320 318 317 317 316 316 315 319 326 333 336 337 337 339 341 343 346 350 351 350 348 347 347 346 344 342 341 342 342 342 341 339 336 332 329 327 325 325 325 323 319
274 266 263 266 279 295 308 313 313 309 306 307 310 312 314 316 316 314 311 308 306 306 308 310 312 314 314 314 313 314 315 317 318 318 317 318 318 318 319 319 320 321 322 321 320 318 317 315 316 316 315 314 314 319 326 333 336 337 338 339 340 343 347 350 350 349 348 347 343 339 336 336 337 338 339 339 338 335 332 329 326 325 325 325 326 323
284 279 280 288 298 307 313 314 311 307 306 308 310 313 315 318 318 316 312 310 308 308 309 310 311 313 313 314 313 312 313 315 317 319 320 321 320 319 319 318 319 319 319 319 317 316 314 313 312 312 314 315 316 318 323 329 333 335 335 334 334 338 342 347 349 350 349 346 341 335 331 331 332 334 336 337 336 335 332 329 326 324 322 322 322 323
289 290 292 296 301 305 309 310 307 305 305 306 309 314 318 321 320 316 312 310 310 310 311 311 311 312 313 314 314 312 311 312 313 316 317 317 316 316 316 317 317 318 318 318 316 315 312 310 309 309 310 314 317 320 324 329 333 334 331 329 330 334 339 344 348 350 350 345 338 332 328 329 330 332 334 335 335 335 333 330 327 324 321 319 318 318
286 288 290 293 295 297 301 303 302 300 300 303 309 316 322 322 319 315 312 311 311 311 311 311 311 312 313 315 315 313 309 306 306 307 309 310 311 312 314 316 317 318 318 318 317 315 313 312 311 311 312 313 315 318 322 328 332 333 330 329 329 332 336 341 346 349 347 342 335 330 328 328 330 331 332 333 334 334 333 330 327 323 320 318 317 315
287 288 288 286 286 287 292 294 294 293 294 301 311 319 321 319 316 314 313 313 313 312 311 310 310 311 313 317 317 314 310 306 305 306 307 308 310 312 315 318 319 320 320 319 318 316 315 314 313 314 314 315 315 317 319 324 329 331 330 331 330 331 334 339 345 346 343 337 332 329 329 330 331 331 331 331 332 333 332 330 326 323 319 317 314 312
287 287 284 279 276 278 284 287 286 285 288 300 313 319 319 316 314 313 313 314 314 313 312 311 312 315 318 320 320 318 314 311 310 310 310 311 313 316 319 321 322 322 321 320 318 316 315 314 314 314 315 315 315 316 318 322 325 328 330 332 332 332 333 338 343 344 339 334 331 330 331 332 332 331 331 331 332 332 332 330 327 323 319 315 311 308
285 284 279 273 272 278 283 282 279 278 285 300 313 318 317 316 314 314 315 315 314 313 312 313 316 319 323 326 325 323 320 318 316 315 314 315 318 321 324 325 325 324 322 320 318 316 315 314 314 314 315 316 316 317 318 320 322 325 330 333 335 336 337 338 340 340 336 334 333 334 335 334 333 332 332 332 332 333 334 333 330 325 321 316 311 307
284 284 279 277 281 285 284 277 271 272 283 300 312 316 316 315 315 315 315 315 314 312 312 314 318 322 326 328 327 326 324 323 321 319 318 319 322 324 326 327 326 325 323 321 319 318 317 316 316 317 318 317 317 318 318 319 321 325 330 334 336 337 336 336 337 337 336 335 337 338 338 338 336 335 334 334 336 338 339 338 335 330 325 321 317 313
282 285 285 287 289 286 279 271 265 269 284 301 312 315 315 314 314 315 315 315 313 311 312 315 320 324 326 326 326 325 325 324 323 320 319 320 323 326 327 328 328 328 326 324 322 321 319 319 319 319 319 318 317 318 319 321 324 328 332 335 336 336 335 337 339 339 340 340 341 343 343 341 340 338 337 338 340 343 345 344 341 336 331 328 325 322
282 284 285 284 282 277 269 262 261 269 286 302 311 313 313 314 315 315 315 314 312 310 310 314 320 324 325 326 326 326 325 325 323 321 320 322 325 328 329 329 331 332 333 332 328 324 320 319 319 319 319 318 316 316 319 324 329 333 335 336 336 336 338 342 345 346 345 346 347 347 346 345 344 342 340 340 343 347 351 351 348 342 336 332 329 326
287 284 280 275 270 265 258 255 259 270 288 303 309 310 312 313 314 315 315 314 311 310 310 314 318 321 323 325 327 328 327 326 324 323 323 326 329 332 332 332 333 335 338 340 337 331 324 320 318 319 318 317 317 318 323 329 334 336 337 337 337 339 343 348 351 352 351 351 351 351 350 349 347 345 343 343 345 349 355 358 356 350 341 335 330 326
287 282 274 266 258 251 247 250 257 272 292 303 307 309 310 312 313 315 315 314 312 310 311 312 315 318 322 326 328 329 328 326 325 324 327 331 335 336 335 335 335 337 340 344 345 340 329 321 317 317 318 320 321 324 329 335 338 338 338 339 341 344 348 352 354 355 355 355 354 354 353 353 350 347 345 345 347 351 357 1 1 356 346 338 331 325
282 277 266 256 247 242 242 247 257 275 294 302 305 307 309 311 312 314 314 313 312 311 309 309 312 316 321 326 328 329 327 326 326 327 330 334 338 340 339 336 335 336 338 342 349 352 341 324 317 317 321 326 329 331 334 336 336 336 339 343 346 349 350 352 353 354 355 354 354 355 355 356 354 351 349 347 348 351 355 358 359 356 349 340 332 325
280 270 257 248 242 240 242 248 260 280 294 300 303 305 307 310 312 313 314 313 312 310 308 308 312 317 321 325 327 328 327 327 328 330 333 336 340 342 342 340 338 337 337 337 344 355 3 350 332 327 330 334 336 335 334 333 333 334 340 348 352 351 350 350 352 353 352 352 352 354 356 358 358 356 354 351 350 350 351 352 353 352 348 341 333 326
272 260 250 246 245 246 247 253 266 283 293 297 300 303 306 309 311 313 313 312 311 308 305 306 310 316 321 324 326 327 327 328 330 332 334 336 338 341 343 342 341 340 339 339 340 344 355 9 23 12 348 341 338 335 333 334 335 337 343 351 354 353 351 350 351 352 352 352 353 355 358 0 1 360 358 356 354 352 350 349 349 349 347 342 335 329